Terminal Aerodrome Forecast
Issued by NWS Milwaukee/Sullivan, WI

Home | Current Version | Previous Version | Text Only | Print | Product List | Glossary On
Versions: 1 2 3 4 5 6 7 8 9 10 11 12 13 14 15 16 17 18 19 20 21 22 23 24 25 26 27 28 29 30 31 32 33 34 35 36 37 38 39 40 41 42 43 44 45 46 47 48 49 50
000
FTUS43 KMKX 011744
TAFMKE
TAF
KMKE 011744Z 0118/0224 13013KT P6SM SCT250
     FM020000 15008KT P6SM BKN090 BKN250
     FM020500 17006KT 5SM -SHRA BR VCTS BKN040CB OVC070
     FM021100 16007KT 3SM BR BKN015
     FM021400 18008KT P6SM SCT020 BKN045
     FM022000 13008KT P6SM VCTS SCT020 BKN040CB=

USA.gov is the U.S. government's official web portal to all federal, state and local government web resources and services.